Location: Southlake
(32.9412°N, 97.1342°W)
Time: 02:09:23
(UTC+00:00)

Aurora 2 Rocket - Pass Details

Date: 03 December 2021
Orbit: 389 x 1731 km, 25.0° (Epoch: 17 January)

Event Time Altitude Azimuth Distance (km) Brightness Sun altitude
Rises 23:39:24 0° 252° (WSW) 2,683 8.5 -4.2°
Reaches altitude 10° 23:41:30 10° 243° (WSW) 1,935 7.1 -4.6°
Maximum altitude 23:45:36 34° 177° (S) 1,191 4.3 -5.4°
Drops below altitude 10° 23:51:13 10° 114° (ESE) 2,680 5.4 -6.5°
Sets 23:54:38 0° 106° (ESE) 3,893 6.2 -7.2°
